Precipitable_Water
1.60 1.60 1.62 1.58 1.59 1.59 1.59 1.60 1.61 1.60 1.59 1.56 1.53 1.48 1.47 1.48 1.48 1.47 1.49 1.46 1.44 1.42 1.41 1.41 1.41 1.40 1.35 1.31 1.30 1.31 1.30 1.28 1.27 1.29 1.39 1.51 1.64 1.76 1.83 1.87 1.88 1.90 1.93 1.93 1.95 1.97 1.99 1.98 1.96 1.92 1.89 1.87 1.78 1.75 1.68 1.58 1.50 1.48 1.48 1.49 1.49 1.51 1.55 1.52 1.49 1.43 1.41 1.43 1.51 1.60 1.69 1.70 1.64 1.62 1.61 1.56 1.52 1.50 1.50 1.55 1.63 1.71 1.74 1.75 1.76
1.60 1.61 1.57 1.55 1.56 1.56 1.55 1.56 1.57 1.59 1.57 1.51 1.53 1.49 1.46 1.47 1.45 1.43 1.40 1.38 1.36 1.34 1.30 1.27 1.23 1.19 1.16 1.10 1.09 1.10 1.12 1.15 1.17 1.19 1.22 1.29 1.45 1.62 1.71 1.77 1.84 1.89 1.95 1.94 1.92 1.94 1.97 2.02 2.00 1.98 1.95 1.88 1.78 1.73 1.70 1.65 1.62 1.53 1.52 1.52 1.51 1.50 1.53 1.53 1.50 1.47 1.44 1.41 1.44 1.52 1.64 1.73 1.78 1.72 1.62 1.58 1.53 1.49 1.49 1.52 1.58 1.67 1.73 1.75 1.76
1.61 1.60 1.60 1.57 1.55 1.54 1.53 1.57 1.55 1.57 1.58 1.53 1.53 1.48 1.48 1.44 1.40 1.36 1.34 1.31 1.28 1.24 1.18 1.12 1.08 1.05 1.03 0.99 0.99 1.02 1.03 1.07 1.09 1.13 1.16 1.21 1.30 1.42 1.54 1.62 1.67 1.72 1.82 1.96 1.97 1.92 1.94 1.99 2.05 2.01 1.96 1.91 1.86 1.77 1.80 1.76 1.75 1.64 1.60 1.57 1.55 1.54 1.53 1.53 1.53 1.52 1.47 1.42 1.40 1.43 1.50 1.62 1.70 1.75 1.79 1.67 1.60 1.58 1.56 1.57 1.61 1.67 1.71 1.73 1.76
1.65 1.64 1.61 1.58 1.55 1.53 1.55 1.55 1.55 1.58 1.59 1.55 1.51 1.50 1.47 1.42 1.37 1.34 1.31 1.27 1.21 1.13 1.07 1.04 1.02 1.02 1.02 1.00 1.01 0.99 0.99 1.00 0.99 1.01 1.03 1.10 1.18 1.27 1.36 1.43 1.50 1.53 1.57 1.72 1.89 1.96 1.96 1.95 1.98 2.02 1.98 1.93 1.89 1.81 1.80 1.79 1.81 1.80 1.74 1.63 1.58 1.58 1.57 1.54 1.54 1.55 1.53 1.49 1.43 1.39 1.40 1.49 1.59 1.68 1.74 1.78 1.73 1.68 1.69 1.68 1.69 1.71 1.72 1.74 1.77
1.70 1.67 1.64 1.60 1.56 1.55 1.54 1.55 1.56 1.58 1.58 1.56 1.51 1.49 1.46 1.37 1.30 1.30 1.25 1.19 1.09 1.01 1.04 1.06 1.09 1.09 1.01 0.98 0.97 0.95 0.95 0.95 0.94 0.95 0.95 0.97 1.04 1.10 1.15 1.22 1.32 1.36 1.38 1.44 1.61 1.83 1.94 1.97 1.96 1.94 1.95 1.95 1.95 1.93 1.88 1.84 1.81 1.82 1.79 1.75 1.69 1.58 1.57 1.58 1.56 1.54 1.56 1.57 1.54 1.48 1.43 1.42 1.45 1.52 1.61 1.67 1.71 1.72 1.70 1.72 1.75 1.77 1.79 1.80 1.81
1.78 1.74 1.71 1.64 1.59 1.56 1.55 1.54 1.57 1.58 1.58 1.55 1.50 1.50 1.43 1.33 1.25 1.18 1.09 1.01 0.95 0.96 1.01 1.06 1.16 1.13 1.02 1.02 1.02 0.99 0.95 0.94 0.93 0.94 0.96 0.96 0.98 0.99 1.03 1.08 1.13 1.17 1.21 1.26 1.33 1.48 1.76 1.93 1.98 1.98 1.97 1.98 1.98 1.98 1.94 1.89 1.89 1.86 1.81 1.79 1.77 1.71 1.66 1.62 1.65 1.65 1.61 1.58 1.55 1.56 1.53 1.50 1.47 1.47 1.48 1.51 1.58 1.64 1.67 1.69 1.75 1.80 1.83 1.86 1.87
1.88 1.83 1.79 1.73 1.64 1.59 1.60 1.63 1.66 1.67 1.61 1.58 1.54 1.50 1.41 1.32 1.22 1.05 0.99 0.96 0.94 0.99 1.06 1.09 1.14 1.10 1.08 1.09 1.06 1.04 1.01 0.96 0.97 0.98 1.00 1.00 0.99 0.97 0.96 0.96 1.01 1.07 1.13 1.16 1.21 1.27 1.40 1.68 1.89 1.98 2.01 2.01 2.01 2.00 1.98 1.95 1.94 1.92 1.88 1.80 1.76 1.77 1.75 1.69 1.64 1.63 1.66 1.66 1.59 1.53 1.54 1.57 1.58 1.56 1.53 1.51 1.50 1.53 1.58 1.63 1.70 1.78 1.83 1.86 1.88
1.90 1.90 1.83 1.78 1.73 1.68 1.67 1.71 1.72 1.72 1.67 1.63 1.57 1.46 1.40 1.30 1.15 1.02 0.92 0.92 0.94 1.02 1.13 1.09 1.09 1.07 1.14 1.14 1.13 1.11 1.05 1.04 1.03 1.07 1.09 1.11 1.09 1.08 1.07 1.05 1.03 1.00 1.01 1.09 1.13 1.20 1.27 1.39 1.63 1.85 1.95 1.98 2.01 2.02 2.00 1.97 1.93 1.91 1.89 1.87 1.82 1.78 1.78 1.78 1.74 1.66 1.64 1.63 1.65 1.65 1.59 1.54 1.57 1.61 1.64 1.62 1.57 1.53 1.54 1.57 1.63 1.69 1.76 1.82 1.87
1.93 1.89 1.83 1.81 1.80 1.76 1.76 1.80 1.78 1.72 1.65 1.59 1.52 1.45 1.35 1.22 1.08 1.03 0.99 0.91 0.95 1.01 1.10 1.10 1.03 1.04 1.13 1.14 1.14 1.14 1.11 1.08 1.09 1.08 1.12 1.11 1.10 1.11 1.12 1.15 1.14 1.10 1.09 1.05 1.07 1.10 1.18 1.28 1.43 1.65 1.82 1.89 1.92 2.00 2.05 1.99 1.94 1.90 1.88 1.88 1.85 1.83 1.82 1.81 1.82 1.78 1.71 1.67 1.63 1.63 1.68 1.65 1.61 1.61 1.63 1.68 1.70 1.66 1.59 1.56 1.57 1.61 1.68 1.74 1.79
1.87 1.87 1.82 1.84 1.83 1.80 1.77 1.77 1.76 1.69 1.60 1.55 1.46 1.40 1.29 1.17 1.01 1.03 1.00 0.95 0.96 1.03 1.04 1.06 1.01 1.00 1.07 1.10 1.12 1.12 1.13 1.12 1.11 1.13 1.14 1.14 1.14 1.11 1.12 1.18 1.23 1.28 1.26 1.22 1.16 1.13 1.13 1.19 1.29 1.40 1.56 1.72 1.82 1.85 1.88 1.93 1.93 1.91 1.91 1.93 1.90 1.87 1.86 1.86 1.87 1.84 1.79 1.74 1.67 1.63 1.62 1.65 1.67 1.63 1.61 1.65 1.69 1.72 1.71 1.66 1.60 1.58 1.60 1.65 1.69
1.84 1.85 1.82 1.84 1.81 1.75 1.68 1.66 1.66 1.60 1.55 1.45 1.32 1.24 1.17 1.08 0.98 0.97 1.02 1.02 1.02 1.04 1.03 1.05 1.01 1.00 1.05 1.07 1.10 1.11 1.15 1.14 1.15 1.15 1.16 1.14 1.13 1.13 1.14 1.14 1.18 1.26 1.33 1.35 1.32 1.27 1.23 1.24 1.28 1.31 1.38 1.48 1.66 1.80 1.85 1.83 1.85 1.88 1.89 1.91 1.94 1.89 1.88 1.87 1.90 1.89 1.83 1.77 1.73 1.69 1.66 1.65 1.67 1.71 1.69 1.63 1.65 1.68 1.72 1.72 1.69 1.65 1.62 1.62 1.64
1.81 1.81 1.89 1.75 1.70 1.71 1.65 1.68 1.60 1.51 1.37 1.22 1.14 1.08 1.02 0.99 0.98 0.97 0.95 1.03 1.07 1.02 1.05 1.05 1.02 1.00 1.02 1.03 1.08 1.09 1.10 1.12 1.14 1.14 1.14 1.12 1.11 1.13 1.11 1.12 1.13 1.16 1.20 1.27 1.31 1.33 1.33 1.31 1.29 1.33 1.38 1.40 1.44 1.55 1.67 1.78 1.86 1.89 1.90 1.89 1.88 1.88 1.89 1.89 1.92 1.92 1.89 1.81 1.78 1.73 1.69 1.69 1.70 1.69 1.69 1.68 1.60 1.61 1.64 1.68 1.70 1.70 1.69 1.66 1.65
1.71 1.69 1.68 1.76 1.75 1.69 1.57 1.51 1.47 1.35 1.22 1.09 1.04 0.98 0.97 0.98 0.97 0.99 0.95 0.90 0.91 0.99 1.02 1.04 0.92 0.93 0.99 0.96 0.98 1.08 1.08 1.10 1.09 1.11 1.09 1.11 1.12 1.11 1.12 1.10 1.11 1.13 1.15 1.18 1.18 1.20 1.24 1.28 1.32 1.39 1.45 1.51 1.52 1.52 1.54 1.57 1.64 1.74 1.84 1.90 1.93 1.91 1.89 1.90 1.93 1.94 1.91 1.87 1.83 1.81 1.75 1.70 1.72 1.73 1.72 1.69 1.65 1.59 1.58 1.60 1.64 1.67 1.69 1.70 1.68
1.55 1.54 1.51 1.45 1.42 1.42 1.40 1.33 1.24 1.15 1.09 1.04 0.96 0.91 0.93 0.95 0.96 0.89 0.95 0.88 0.86 0.94 0.99 0.98 0.87 0.84 0.80 0.83 0.90 1.02 1.08 1.06 1.06 1.09 1.06 1.05 1.07 1.06 1.07 1.05 1.05 1.08 1.10 1.12 1.13 1.13 1.14 1.18 1.21 1.26 1.31 1.38 1.48 1.58 1.64 1.66 1.69 1.71 1.75 1.81 1.85 1.89 1.93 1.97 1.96 1.96 1.94 1.91 1.87 1.87 1.84 1.76 1.72 1.71 1.71 1.69 1.73 1.70 1.72 1.68 1.62 1.62 1.65 1.67 1.69
1.36 1.32 1.28 1.30 1.30 1.27 1.24 1.19 1.13 1.08 0.99 0.92 0.90 0.88 0.91 0.92 0.94 0.88 0.88 0.96 0.92 1.02 1.04 1.05 0.86 0.92 0.93 0.81 0.75 0.75 0.93 0.98 1.03 1.06 1.05 1.01 1.03 0.99 1.00 0.97 0.97 1.01 1.03 1.01 1.00 1.04 1.06 1.10 1.13 1.17 1.19 1.22 1.29 1.37 1.48 1.58 1.65 1.70 1.76 1.82 1.88 1.91 1.91 1.91 1.93 1.96 1.99 2.01 1.96 1.92 1.89 1.86 1.76 1.73 1.71 1.74 1.75 1.72 1.74 1.75 1.73 1.68 1.63 1.62 1.64
1.23 1.22 1.22 1.24 1.22 1.18 1.16 1.10 1.05 1.01 0.95 0.89 0.89 0.90 0.93 0.94 0.96 0.96 0.93 0.80 0.85 0.91 1.03 1.05 0.98 0.91 0.74 0.73 0.75 0.74 0.65 0.80 0.86 0.97 1.04 0.98 0.96 0.94 0.93 0.92 0.91 0.93 0.95 0.93 0.95 1.00 1.03 1.05 1.04 1.07 1.10 1.14 1.18 1.21 1.25 1.34 1.44 1.55 1.65 1.73 1.78 1.83 1.87 1.89 1.87 1.88 1.94 2.01 2.03 1.97 1.91 1.84 1.79 1.75 1.71 1.73 1.76 1.70 1.69 1.71 1.73 1.74 1.75 1.67 1.61
1.18 1.17 1.16 1.13 1.14 1.11 1.07 1.03 0.97 0.98 0.96 0.90 0.90 0.91 0.95 1.00 1.00 0.96 0.95 0.88 0.86 0.88 0.97 1.04 1.01 1.03 0.86 0.73 0.68 0.64 0.69 0.79 0.86 0.88 1.00 0.98 0.93 0.90 0.88 0.87 0.85 0.86 0.87 0.89 0.95 0.97 1.01 1.03 1.07 1.09 1.10 1.12 1.13 1.14 1.16 1.19 1.22 1.27 1.38 1.52 1.62 1.68 1.77 1.87 1.93 1.91 1.90 1.96 1.99 1.97 1.94 1.90 1.87 1.82 1.78 1.77 1.74 1.67 1.66 1.69 1.69 1.71 1.72 1.72 1.73
1.16 1.15 1.12 1.09 1.06 1.05 1.01 0.99 0.96 0.94 0.94 0.94 0.96 0.96 0.96 0.97 0.99 0.98 0.94 0.99 0.90 0.83 0.83 0.96 1.01 0.98 0.99 0.92 0.81 0.70 0.73 0.83 0.76 0.75 0.89 0.94 0.91 0.87 0.83 0.82 0.84 0.84 0.85 0.85 0.86 0.89 0.95 0.95 0.99 1.00 1.03 1.06 1.08 1.10 1.12 1.11 1.12 1.18 1.22 1.27 1.32 1.44 1.53 1.65 1.80 1.92 1.94 1.93 1.98 2.00 1.97 1.94 1.91 1.87 1.84 1.80 1.77 1.74 1.70 1.65 1.65 1.66 1.68 1.71 1.74
1.14 1.13 1.10 1.08 1.06 1.03 1.01 0.99 0.96 0.94 0.96 0.96 0.94 0.92 0.95 0.97 1.01 0.97 0.96 0.99 0.94 0.83 0.81 0.84 0.92 0.97 0.99 0.98 0.96 0.97 0.96 0.84 0.72 0.71 0.64 0.77 0.80 0.78 0.77 0.79 0.79 0.79 0.78 0.79 0.80 0.81 0.83 0.85 0.86 0.88 0.91 0.93 0.96 1.02 1.05 1.04 1.06 1.10 1.16 1.14 1.18 1.21 1.26 1.35 1.49 1.69 1.84 1.90 1.92 1.96 1.98 1.97 1.94 1.91 1.89 1.87 1.84 1.83 1.77 1.70 1.65 1.65 1.67 1.69 1.72
1.17 1.14 1.14 1.13 1.12 1.09 1.06 1.01 0.97 0.97 0.96 0.94 0.92 0.96 0.97 0.99 1.00 0.99 1.00 0.99 0.97 0.88 0.86 0.89 0.81 0.85 0.97 0.96 0.97 0.99 0.98 0.91 0.86 0.71 0.62 0.56 0.68 0.75 0.75 0.73 0.75 0.72 0.75 0.74 0.74 0.74 0.75 0.76 0.78 0.80 0.83 0.86 0.89 0.90 0.91 0.95 0.98 1.03 1.07 1.07 1.11 1.12 1.14 1.15 1.19 1.28 1.48 1.71 1.81 1.87 1.92 1.95 1.94 1.92 1.90 1.87 1.84 1.82 1.82 1.81 1.75 1.70 1.67 1.69 1.71
1.20 1.17 1.18 1.18 1.16 1.12 1.10 1.05 1.00 0.98 0.96 0.95 0.96 1.00 0.97 0.97 0.96 0.95 0.93 0.95 0.97 0.98 0.92 0.88 0.89 0.87 0.89 0.91 0.93 0.90 0.90 0.90 0.86 0.83 0.70 0.60 0.58 0.59 0.64 0.72 0.73 0.73 0.71 0.76 0.77 0.77 0.75 0.73 0.73 0.73 0.74 0.76 0.80 0.82 0.83 0.84 0.86 0.91 0.94 0.95 0.97 0.99 1.02 1.08 1.14 1.19 1.23 1.33 1.50 1.66 1.77 1.84 1.88 1.93 1.94 1.91 1.85 1.81 1.82 1.85 1.86 1.79 1.72 1.69 1.66
1.20 1.21 1.20 1.20 1.19 1.20 1.17 1.09 0.99 0.96 0.95 0.95 0.96 0.96 0.97 0.95 0.99 0.96 0.97 0.95 0.97 0.97 0.92 0.94 0.93 0.96 0.95 0.89 0.81 0.81 0.82 0.80 0.80 0.78 0.76 0.68 0.53 0.52 0.57 0.57 0.55 0.66 0.73 0.72 0.73 0.77 0.77 0.76 0.75 0.74 0.74 0.74 0.75 0.74 0.74 0.75 0.77 0.81 0.84 0.87 0.88 0.87 0.86 0.89 0.95 1.05 1.13 1.19 1.28 1.38 1.50 1.63 1.71 1.79 1.89 1.93 1.92 1.88 1.85 1.84 1.84 1.84 1.81 1.76 1.73
1.21 1.21 1.21 1.22 1.22 1.23 1.14 1.07 1.04 1.01 0.97 0.96 0.94 0.95 0.97 0.96 0.97 0.98 0.98 0.95 0.95 0.95 0.92 0.96 0.99 0.97 0.93 0.89 0.86 0.80 0.78 0.73 0.72 0.73 0.68 0.63 0.60 0.59 0.62 0.66 0.63 0.62 0.75 0.76 0.76 0.76 0.77 0.75 0.75 0.75 0.74 0.74 0.75 0.74 0.72 0.72 0.73 0.72 0.74 0.76 0.80 0.81 0.81 0.83 0.85 0.88 0.92 1.00 1.11 1.22 1.30 1.37 1.48 1.57 1.67 1.82 1.90 1.91 1.90 1.87 1.83 1.83 1.85 1.84 1.83
1.19 1.18 1.19 1.22 1.20 1.17 1.12 1.09 1.04 1.02 0.99 0.99 0.98 0.97 0.98 0.98 0.98 0.99 0.97 0.97 0.98 0.95 0.95 0.92 0.98 1.02 0.95 0.94 0.91 0.90 0.88 0.83 0.86 0.85 0.77 0.75 0.72 0.67 0.66 0.70 0.70 0.73 0.78 0.82 0.85 0.81 0.80 0.76 0.74 0.73 0.74 0.73 0.74 0.73 0.73 0.74 0.76 0.75 0.75 0.74 0.74 0.73 0.73 0.75 0.77 0.79 0.83 0.87 0.93 1.00 1.12 1.22 1.29 1.38 1.46 1.56 1.72 1.84 1.91 1.92 1.89 1.86 1.86 1.86 1.83
1.10 1.10 1.14 1.17 1.17 1.12 1.08 1.05 1.03 1.04 1.02 0.99 0.98 0.97 0.97 0.97 0.98 0.97 0.97 0.95 0.95 0.95 0.94 0.93 0.95 0.94 0.95 0.97 0.94 0.90 0.88 0.91 0.91 0.89 0.90 0.87 0.81 0.69 0.72 0.72 0.63 0.67 0.80 0.82 0.79 0.85 0.89 0.90 0.84 0.79 0.75 0.73 0.74 0.76 0.77 0.79 0.79 0.79 0.79 0.80 0.78 0.75 0.72 0.72 0.73 0.73 0.74 0.76 0.81 0.86 0.93 1.03 1.13 1.23 1.31 1.38 1.50 1.65 1.74 1.82 1.90 1.89 1.85 1.85 1.88
1.03 1.05 1.11 1.15 1.17 1.15 1.12 1.09 1.09 1.07 1.02 0.96 0.97 0.97 0.95 0.95 0.96 0.95 0.95 0.99 1.02 1.00 0.98 0.99 0.99 0.98 1.03 0.98 0.96 0.97 0.95 0.97 0.97 0.96 0.93 0.89 0.81 0.74 0.73 0.78 0.79 0.76 0.85 0.87 0.93 0.83 0.91 1.00 0.99 0.89 0.82 0.80 0.79 0.81 0.82 0.81 0.82 0.82 0.82 0.83 0.82 0.79 0.75 0.73 0.73 0.72 0.72 0.72 0.72 0.74 0.78 0.84 0.94 1.04 1.12 1.23 1.34 1.47 1.60 1.69 1.74 1.80 1.85 1.85 1.81
1.05 1.10 1.17 1.16 1.15 1.17 1.15 1.12 1.10 1.07 1.03 0.96 0.95 0.95 0.94 0.93 0.94 0.95 0.99 1.05 1.04 1.03 1.02 1.01 0.99 1.00 1.01 0.98 0.99 1.02 1.04 1.08 1.08 1.07 1.07 1.00 0.91 0.88 0.86 0.77 0.80 0.86 0.84 0.88 0.90 0.88 0.87 0.97 1.04 0.97 0.89 0.85 0.85 0.86 0.86 0.87 0.86 0.85 0.85 0.87 0.86 0.81 0.78 0.77 0.75 0.74 0.74 0.73 0.73 0.72 0.72 0.73 0.76 0.85 0.95 1.04 1.15 1.27 1.43 1.56 1.66 1.68 1.70 1.75 1.79
1.11 1.14 1.17 1.16 1.14 1.14 1.15 1.13 1.12 1.09 1.02 0.96 0.93 0.91 0.91 0.90 0.91 0.95 0.97 1.07 1.04 1.04 1.05 1.07 1.04 1.04 1.06 1.09 1.04 1.03 1.11 1.12 1.12 1.13 1.10 1.06 1.01 1.00 0.99 0.93 0.81 0.71 0.79 0.76 0.80 0.82 0.95 0.91 1.01 1.00 0.94 0.92 0.93 0.95 0.97 0.93 0.94 0.92 0.90 0.89 0.87 0.84 0.81 0.78 0.77 0.76 0.75 0.75 0.75 0.73 0.72 0.72 0.73 0.74 0.79 0.86 0.96 1.08 1.20 1.35 1.49 1.61 1.66 1.67 1.72
1.15 1.19 1.19 1.18 1.18 1.15 1.13 1.13 1.13 1.10 1.03 0.99 0.96 0.93 0.93 0.92 0.91 0.94 0.95 1.04 1.05 1.03 1.06 1.04 1.03 1.03 1.04 1.05 1.03 1.03 1.06 1.10 1.09 1.10 1.12 1.10 1.07 1.08 1.08 1.01 0.98 0.82 0.70 0.66 0.70 0.73 0.82 0.86 0.79 0.90 0.94 0.98 0.99 1.03 1.03 1.03 1.02 0.99 0.95 0.92 0.89 0.88 0.85 0.80 0.77 0.76 0.77 0.77 0.75 0.74 0.74 0.74 0.74 0.75 0.76 0.78 0.82 0.88 1.00 1.13 1.26 1.40 1.54 1.60 1.65
1.17 1.16 1.19 1.23 1.26 1.23 1.17 1.14 1.14 1.12 1.05 1.01 1.00 0.98 0.96 0.92 0.92 0.94 0.96 1.02 1.02 1.03 1.05 1.02 1.00 1.01 0.99 1.00 1.03 1.01 1.06 1.06 1.06 1.09 1.11 1.14 1.12 1.09 1.10 1.15 1.06 0.85 0.76 0.65 0.65 0.77 0.77 0.83 0.84 0.80 0.94 0.95 1.01 1.02 1.02 1.02 1.04 1.03 1.00 0.98 0.95 0.91 0.86 0.81 0.78 0.78 0.77 0.77 0.76 0.75 0.75 0.75 0.75 0.75 0.76 0.78 0.79 0.82 0.87 0.94 1.06 1.20 1.31 1.45 1.56
1.19 1.14 1.15 1.24 1.31 1.31 1.28 1.21 1.19 1.15 1.08 1.02 1.02 1.01 0.99 0.93 0.93 0.91 0.94 0.95 0.92 0.92 0.97 0.95 0.94 0.95 0.95 0.96 1.01 1.00 1.03 1.03 1.05 1.10 1.13 1.12 1.10 1.06 1.02 1.04 0.99 0.91 0.81 0.76 0.64 0.75 0.85 0.77 0.85 0.92 0.90 0.94 1.02 1.02 1.03 1.02 0.99 0.98 0.96 0.97 0.99 0.96 0.91 0.86 0.82 0.79 0.78 0.78 0.78 0.77 0.76 0.76 0.76 0.75 0.76 0.78 0.80 0.80 0.83 0.88 0.94 1.02 1.14 1.25 1.39
1.19 1.17 1.17 1.21 1.26 1.29 1.30 1.26 1.20 1.16 1.11 1.03 1.03 1.04 1.03 0.98 0.95 0.93 0.93 0.93 0.89 0.87 0.88 0.93 0.92 0.93 0.93 0.91 0.94 0.96 1.04 1.06 1.05 1.04 1.04 1.04 1.05 1.02 1.00 0.98 0.97 0.96 0.92 0.83 0.74 0.70 0.88 0.89 0.90 0.91 0.93 0.94 1.02 1.03 1.01 0.99 1.00 0.96 0.94 0.97 0.99 0.98 0.98 0.96 0.88 0.82 0.81 0.81 0.81 0.80 0.78 0.78 0.77 0.77 0.77 0.77 0.80 0.82 0.82 0.84 0.89 0.95 1.01 1.10 1.22
1.21 1.22 1.19 1.20 1.26 1.29 1.27 1.25 1.19 1.15 1.09 1.04 1.06 1.08 1.05 1.01 0.99 0.95 0.95 0.94 0.91 0.91 0.91 0.90 0.95 0.93 0.93 0.93 0.96 1.01 1.07 1.00 0.97 0.96 0.95 0.97 1.00 1.00 1.01 1.01 0.97 0.99 0.95 0.87 0.78 0.75 0.84 0.96 0.98 0.93 0.91 0.93 0.89 0.93 0.89 0.90 0.95 1.01 1.02 1.00 0.99 0.96 0.96 0.96 0.93 0.89 0.86 0.84 0.83 0.82 0.81 0.80 0.80 0.79 0.78 0.78 0.78 0.81 0.84 0.84 0.86 0.90 0.95 1.00 1.05
1.25 1.26 1.24 1.24 1.30 1.29 1.23 1.20 1.18 1.14 1.09 1.08 1.11 1.10 1.06 1.03 0.99 0.97 0.94 0.95 0.94 0.93 0.94 0.92 0.95 0.98 0.98 0.95 0.95 0.99 1.05 0.97 0.93 0.93 0.94 0.95 0.96 0.96 0.98 0.99 0.96 0.95 1.01 0.91 0.84 0.80 0.75 0.88 0.90 0.98 0.97 0.95 0.83 0.89 0.84 0.86 0.90 0.95 0.95 0.96 0.98 0.97 0.96 0.96 0.93 0.90 0.88 0.87 0.86 0.85 0.84 0.83 0.82 0.82 0.80 0.79 0.79 0.79 0.82 0.85 0.85 0.87 0.90 0.94 0.97
1.27 1.31 1.28 1.27 1.31 1.27 1.20 1.16 1.15 1.13 1.11 1.13 1.16 1.12 1.08 1.03 0.98 0.95 0.95 0.96 0.96 0.94 0.93 0.94 0.95 1.00 0.98 0.95 0.95 0.99 1.01 0.93 0.94 0.95 0.98 0.97 1.00 0.97 0.95 0.98 0.95 0.93 0.95 0.97 0.88 0.81 0.80 0.81 0.91 0.90 0.91 0.94 0.89 0.85 0.89 0.90 0.92 0.93 0.89 0.90 0.94 0.98 0.99 0.96 0.93 0.91 0.90 0.89 0.87 0.85 0.85 0.84 0.84 0.84 0.83 0.82 0.80 0.79 0.79 0.82 0.86 0.86 0.88 0.91 0.93
1.30 1.25 1.27 1.28 1.33 1.28 1.18 1.12 1.13 1.15 1.16 1.17 1.17 1.14 1.09 1.03 0.98 0.96 0.97 0.97 0.98 0.98 0.98 0.98 0.99 0.99 0.97 0.95 0.94 0.94 0.97 0.95 0.97 0.99 1.00 1.00 0.98 0.97 0.96 0.98 0.97 0.95 0.97 0.98 0.97 0.89 0.86 0.81 0.87 0.90 0.93 0.93 0.94 0.96 0.96 0.96 0.93 0.93 0.93 0.95 0.99 0.98 1.00 1.01 0.98 0.94 0.92 0.91 0.89 0.87 0.86 0.85 0.85 0.85 0.84 0.84 0.83 0.81 0.80 0.80 0.83 0.87 0.87 0.89 0.91
1.28 1.21 1.23 1.29 1.30 1.26 1.15 1.11 1.14 1.17 1.17 1.18 1.16 1.12 1.09 1.05 1.02 0.99 0.99 1.00 1.01 1.02 1.02 1.01 1.01 1.00 1.00 0.95 0.93 0.97 1.00 0.97 0.99 0.99 0.99 0.96 0.99 0.99 0.96 0.97 0.95 0.96 0.97 0.97 0.96 0.97 0.90 0.84 0.86 0.93 0.95 0.94 0.96 0.96 0.97 0.92 0.93 0.95 0.98 0.96 0.97 0.98 0.99 1.02 1.02 0.99 0.94 0.93 0.91 0.89 0.88 0.87 0.87 0.86 0.86 0.85 0.84 0.84 0.82 0.82 0.82 0.85 0.87 0.87 0.89
1.16 1.20 1.27 1.28 1.24 1.24 1.16 1.14 1.18 1.20 1.19 1.18 1.15 1.10 1.07 1.05 1.04 1.02 1.02 1.03 1.04 1.05 1.04 1.03 1.03 1.03 1.00 0.99 1.00 1.03 1.04 1.01 1.00 1.01 1.02 1.00 1.01 0.98 0.95 0.95 0.95 0.97 0.95 0.95 0.97 0.95 0.91 0.87 0.87 0.86 0.92 0.87 0.88 0.91 0.95 0.96 0.92 0.88 0.89 0.94 0.97 0.99 0.99 0.97 0.97 0.97 0.97 0.95 0.93 0.92 0.91 0.89 0.88 0.87 0.86 0.86 0.85 0.84 0.83 0.82 0.82 0.84 0.87 0.86 0.86
1.13 1.16 1.28 1.28 1.26 1.27 1.22 1.19 1.19 1.21 1.20 1.19 1.15 1.11 1.09 1.08 1.05 1.03 1.03 1.05 1.06 1.07 1.07 1.05 1.05 1.05 1.04 1.05 1.05 1.06 1.05 1.05 1.03 1.01 1.02 1.02 1.01 0.97 0.96 0.95 0.96 0.95 0.93 0.92 0.93 0.91 0.88 0.84 0.84 0.85 0.84 0.88 0.87 0.82 0.92 0.99 0.98 0.97 0.90 0.89 0.91 0.98 0.97 0.95 0.92 0.98 0.99 0.97 0.97 0.97 0.95 0.93 0.89 0.87 0.85 0.86 0.87 0.88 0.86 0.84 0.83 0.85 0.87 0.87 0.85
1.20 1.18 1.21 1.27 1.28 1.28 1.29 1.23 1.21 1.23 1.22 1.19 1.17 1.15 1.14 1.13 1.09 1.06 1.05 1.05 1.07 1.09 1.09 1.08 1.07 1.07 1.08 1.07 1.06 1.07 1.07 1.08 1.05 1.03 1.03 0.99 1.00 0.94 0.95 0.93 0.89 0.88 0.86 0.88 0.88 0.87 0.85 0.82 0.80 0.80 0.83 0.83 0.86 0.89 0.95 0.98 0.94 0.97 1.04 0.99 0.89 0.90 0.92 0.94 0.93 0.90 0.92 0.93 0.91 0.94 0.95 0.96 0.94 0.91 0.89 0.88 0.88 0.88 0.89 0.88 0.87 0.86 0.88 0.89 0.87
1.20 1.27 1.29 1.35 1.37 1.32 1.36 1.28 1.21 1.24 1.23 1.20 1.19 1.16 1.15 1.16 1.16 1.10 1.08 1.08 1.10 1.10 1.11 1.11 1.11 1.10 1.09 1.07 1.06 1.09 1.12 1.09 1.05 1.03 1.02 1.00 0.96 0.91 0.90 0.89 0.87 0.86 0.85 0.86 0.86 0.85 0.83 0.82 0.80 0.83 0.82 0.82 0.82 0.83 0.85 0.88 0.89 0.91 0.99 1.00 0.93 0.95 0.95 0.90 0.90 0.95 0.94 0.89 0.91 0.93 0.93 0.93 0.95 0.94 0.93 0.85 0.86 0.88 0.89 0.90 0.91 0.92 0.92 0.94 0.91
1.26 1.31 1.29 1.34 1.40 1.37 1.36 1.30 1.23 1.23 1.24 1.23 1.20 1.19 1.19 1.21 1.20 1.16 1.12 1.13 1.15 1.16 1.16 1.17 1.17 1.14 1.09 1.09 1.12 1.14 1.13 1.10 1.06 1.03 1.00 0.99 0.98 0.96 0.92 0.89 0.88 0.88 0.89 0.87 0.86 0.87 0.85 0.81 0.81 0.82 0.80 0.79 0.81 0.84 0.87 0.93 0.99 1.01 0.97 0.96 0.90 0.92 0.91 0.87 0.89 0.94 0.96 0.93 0.88 0.87 0.91 0.99 0.95 0.92 0.93 0.88 0.87 0.90 0.89 0.88 0.89 0.94 0.94 0.96 0.96
1.27 1.33 1.34 1.39 1.41 1.42 1.39 1.32 1.24 1.23 1.24 1.23 1.22 1.22 1.23 1.23 1.22 1.18 1.15 1.17 1.21 1.23 1.24 1.22 1.19 1.16 1.13 1.15 1.19 1.21 1.19 1.17 1.11 1.04 1.01 0.98 0.96 0.95 0.93 0.91 0.92 0.92 0.91 0.92 0.92 0.92 0.90 0.88 0.87 0.85 0.83 0.82 0.86 0.91 0.93 0.95 0.97 0.95 0.94 0.93 0.90 0.90 0.85 0.79 0.72 0.84 1.01 0.98 0.94 0.91 0.85 0.96 0.98 0.88 0.88 0.90 0.89 0.88 0.91 0.92 0.92 0.91 0.94 0.94 0.94
1.32 1.31 1.31 1.39 1.44 1.46 1.41 1.36 1.29 1.26 1.27 1.28 1.28 1.27 1.26 1.25 1.24 1.21 1.21 1.21 1.24 1.27 1.28 1.27 1.23 1.18 1.17 1.19 1.20 1.26 1.27 1.22 1.16 1.09 1.03 0.98 0.95 0.95 0.93 0.92 0.94 0.97 0.99 0.95 0.90 0.90 0.93 0.92 0.90 0.88 0.85 0.85 0.90 0.95 0.92 0.89 0.89 0.91 0.91 0.92 0.92 0.89 0.84 0.80 0.81 0.78 0.93 1.07 0.96 0.89 0.82 0.90 0.98 0.95 0.92 0.91 0.94 0.95 0.95 0.96 0.95 0.96 0.95 0.95 0.93
1.34 1.28 1.36 1.36 1.44 1.50 1.47 1.40 1.31 1.34 1.33 1.31 1.34 1.31 1.27 1.27 1.26 1.23 1.24 1.27 1.28 1.30 1.31 1.31 1.31 1.27 1.25 1.24 1.24 1.28 1.29 1.19 1.09 1.06 1.03 1.00 0.98 0.95 0.93 0.92 0.93 0.92 0.92 0.94 0.97 0.96 0.97 0.94 0.92 0.92 0.94 0.95 0.90 0.88 0.92 0.94 0.98 0.89 0.89 0.89 0.90 0.88 0.87 0.85 0.86 0.87 0.93 1.07 0.98 0.88 0.81 0.86 0.96 0.95 0.92 0.95 0.97 0.99 1.01 1.00 0.99 0.99 0.99 0.98 0.95
1.40 1.40 1.42 1.33 1.46 1.49 1.38 1.34 1.39 1.42 1.36 1.37 1.38 1.37 1.33 1.29 1.28 1.28 1.30 1.32 1.34 1.37 1.38 1.39 1.38 1.30 1.19 1.14 1.17 1.13 1.11 1.11 1.09 1.06 1.01 0.97 0.95 0.93 0.93 0.95 0.95 0.95 0.95 0.96 0.97 1.00 1.03 1.02 1.01 0.95 0.99 1.00 0.93 0.96 1.00 1.01 0.94 0.90 0.88 0.85 0.88 0.86 0.88 0.87 0.91 0.93 0.98 1.07 0.98 0.93 0.84 0.86 0.98 0.95 0.90 0.91 0.98 1.01 1.02 1.04 1.01 1.02 1.02 1.00 0.98
1.46 1.45 1.36 1.36 1.46 1.52 1.37 1.31 1.30 1.30 1.32 1.35 1.35 1.39 1.38 1.33 1.31 1.32 1.35 1.38 1.41 1.44 1.46 1.47 1.41 1.30 1.20 1.19 1.18 1.11 1.09 1.08 1.09 1.03 0.96 0.93 0.91 0.90 0.90 0.91 0.91 0.93 0.94 0.98 1.02 1.06 1.06 1.08 1.04 1.03 1.01 1.01 1.01 1.02 1.01 1.00 0.97 0.96 0.96 0.93 0.94 0.94 0.93 0.95 0.94 0.97 0.98 1.05 1.05 1.01 0.83 0.86 1.00 0.93 0.92 0.96 1.00 1.01 1.06 1.06 1.06 1.06 1.05 1.03 1.01
1.45 1.45 1.45 1.43 1.45 1.39 1.26 1.27 1.31 1.33 1.35 1.37 1.45 1.44 1.40 1.38 1.36 1.38 1.41 1.43 1.44 1.46 1.45 1.41 1.38 1.33 1.24 1.23 1.19 1.13 1.09 1.08 1.04 0.97 0.93 0.92 0.90 0.88 0.88 0.89 0.89 0.91 0.95 1.02 1.05 1.06 1.06 1.04 1.00 0.95 0.96 0.98 0.99 0.98 0.99 0.99 1.00 1.02 1.02 1.00 0.98 0.94 0.88 0.83 0.80 0.86 0.88 0.98 1.06 1.02 0.91 0.89 1.00 0.95 0.92 1.02 1.07 1.03 1.07 1.09 1.09 1.08 1.08 1.06 1.03
1.49 1.46 1.37 1.35 1.45 1.46 1.43 1.36 1.30 1.26 1.28 1.41 1.41 1.39 1.44 1.47 1.46 1.45 1.45 1.44 1.42 1.37 1.32 1.30 1.31 1.29 1.23 1.17 1.13 1.11 1.08 1.03 0.99 0.94 0.93 0.92 0.90 0.88 0.87 0.86 0.88 0.89 0.92 1.00 1.05 1.03 0.98 0.95 0.94 0.94 0.94 0.94 0.93 0.95 0.97 1.01 1.02 1.03 0.97 0.89 0.83 0.86 0.79 0.72 0.73 0.78 0.81 0.92 1.01 1.05 0.99 0.90 0.97 1.00 0.98 1.05 1.09 1.05 1.06 1.09 1.14 1.13 1.11 1.10 1.06
1.52 1.39 1.35 1.38 1.40 1.38 1.35 1.32 1.26 1.24 1.33 1.41 1.45 1.51 1.55 1.55 1.51 1.48 1.46 1.41 1.37 1.35 1.32 1.29 1.30 1.25 1.18 1.13 1.11 1.08 1.01 0.97 0.94 0.93 0.92 0.92 0.89 0.88 0.87 0.85 0.84 0.85 0.88 0.92 0.91 0.92 0.93 0.91 0.90 0.89 0.88 0.88 0.90 0.92 0.93 0.95 0.96 0.96 0.89 0.77 0.81 0.81 0.72 0.71 0.67 0.73 0.80 0.88 0.95 1.11 1.00 0.95 1.03 1.07 1.05 1.10 1.11 1.11 1.15 1.17 1.18 1.18 1.17 1.13 1.08
1.40 1.36 1.31 1.25 1.24 1.29 1.35 1.34 1.32 1.32 1.34 1.41 1.48 1.52 1.54 1.52 1.46 1.45 1.43 1.40 1.39 1.40 1.33 1.23 1.20 1.16 1.14 1.11 1.06 1.00 0.95 0.94 0.91 0.91 0.91 0.91 0.90 0.89 0.88 0.85 0.83 0.81 0.83 0.84 0.83 0.82 0.83 0.82 0.83 0.85 0.86 0.89 0.91 0.90 0.90 0.89 0.89 0.88 0.87 0.82 0.79 0.72 0.66 0.66 0.68 0.72 0.72 0.78 0.97 1.13 0.98 0.98 1.03 1.08 1.12 1.04 0.98 1.08 1.19 1.21 1.21 1.21 1.21 1.18 1.12
Wind_Speed
1 2 2 2 3 3 4 4 5 5 6 7 8 8 9 9 10 9 10 10 10 10 11 12 11 11 11 11 11 11 10 10 10 10 10 9 9 9 9 9 9 9 10 11 11 11 12 14 16 16 16 15 15 15 14 14 13 13 13 13 13 12 12 11 11 11 11 11 11 11 11 11 11 10 10 10 9 9 9 8 8 7 7 7 7
2 2 3 3 3 3 4 4 5 5 6 7 8 8 9 9 10 10 10 10 11 11 12 12 11 11 11 11 11 11 10 10 10 10 9 9 9 9 9 9 9 10 10 11 11 11 12 13 15 17 17 16 16 16 16 15 15 14 14 14 14 13 13 12 12 12 12 12 12 12 12 12 12 12 11 11 10 10 9 9 9 8 8 8 8
3 3 3 3 4 4 4 4 5 6 6 7 8 8 9 9 10 10 10 11 11 12 12 12 11 11 11 11 11 10 10 10 10 9 9 9 9 9 9 9 10 10 11 11 11 12 11 12 14 16 17 17 17 17 17 16 16 16 15 15 15 15 14 14 13 13 13 13 13 13 13 13 13 12 12 12 11 11 10 10 10 9 9 9 9
4 4 4 4 4 4 5 5 5 6 7 7 8 8 9 10 10 11 11 11 11 12 12 11 11 12 12 11 11 11 10 10 10 9 9 9 9 9 9 9 10 10 11 11 12 12 12 12 13 15 17 17 17 18 18 18 17 17 17 16 16 16 16 15 15 15 14 14 14 14 14 14 13 13 13 13 12 12 11 11 10 10 10 10 10
5 5 5 5 5 5 5 6 6 6 7 8 8 9 9 10 11 11 11 11 11 11 11 11 11 12 12 12 11 11 11 10 10 10 9 9 9 9 10 10 10 10 11 12 12 13 13 13 13 14 16 17 18 18 19 19 18 18 18 17 17 17 17 17 16 16 16 15 15 15 14 14 14 14 14 14 14 13 12 12 12 11 11 11 11
6 6 6 5 5 5 6 6 6 7 7 8 9 9 10 11 11 11 11 11 11 11 11 11 11 11 11 11 11 11 11 10 10 10 10 10 10 10 10 10 10 10 11 11 12 12 13 14 14 14 15 17 18 19 19 20 19 19 19 19 19 18 18 18 17 17 17 17 16 16 16 15 15 15 15 15 15 14 14 13 13 13 12 12 12
6 6 6 6 6 6 6 7 7 7 8 8 9 10 10 11 11 11 10 10 10 11 11 11 11 11 11 11 11 11 11 10 10 10 10 10 9 9 10 10 10 10 10 11 11 12 13 14 15 15 15 16 17 18 19 20 20 20 20 20 20 20 20 20 19 19 18 18 18 18 17 17 16 16 16 16 16 15 15 15 14 14 14 13 13
7 7 7 7 7 7 7 7 8 8 8 9 10 10 11 11 10 10 10 10 10 10 10 10 11 11 11 11 11 11 10 10 10 10 10 9 9 9 9 9 9 10 10 10 11 11 12 13 14 15 15 16 16 18 19 20 21 21 21 21 21 21 21 21 21 20 20 19 19 19 19 18 18 17 17 17 17 16 16 16 15 15 15 15 14
8 8 8 7 7 8 8 9 9 9 9 10 10 11 11 11 10 10 10 10 11 10 10 10 11 11 11 11 10 10 10 10 10 10 9 9 9 9 9 9 9 9 9 9 10 10 11 11 13 14 15 16 16 17 18 20 21 22 22 22 23 23 22 22 22 22 21 21 21 21 20 20 19 19 18 18 18 18 17 17 17 16 16 16 16
8 8 8 8 8 9 9 9 9 10 10 10 11 11 11 11 10 10 10 11 11 11 10 10 11 11 11 11 10 10 9 9 9 9 9 9 9 9 9 10 9 9 9 9 9 9 9 10 11 13 14 15 16 17 18 19 20 22 22 23 23 24 24 23 23 23 23 22 22 22 21 21 21 20 20 19 19 19 18 18 18 18 17 17 17
8 9 9 9 9 9 9 9 10 10 10 11 11 11 11 11 11 11 11 11 11 11 10 10 11 11 11 11 10 10 9 9 9 8 9 9 9 9 9 10 10 10 9 9 8 8 9 9 9 11 13 14 16 17 18 19 19 21 22 23 24 24 25 25 25 24 24 24 23 23 23 23 22 22 21 21 20 20 20 20 19 19 19 19 18
9 9 9 9 10 10 9 9 9 9 10 11 11 11 11 11 11 11 11 11 11 11 10 10 11 11 11 11 10 9 9 9 8 8 8 9 9 9 10 10 10 10 10 9 9 9 9 9 9 9 11 12 14 16 18 19 20 21 22 23 24 25 25 25 26 26 26 25 25 24 24 24 24 23 23 22 22 21 21 21 21 20 20 20 20
9 9 10 10 10 9 9 9 9 9 10 10 11 11 11 10 10 10 10 10 10 11 10 10 11 11 10 10 10 9 9 9 9 9 9 9 9 10 10 10 10 10 10 10 10 9 9 9 9 9 10 11 12 14 15 17 19 20 21 22 24 25 25 26 26 27 27 27 26 26 25 25 25 25 24 24 24 23 23 23 22 22 21 21 21
9 9 9 9 9 9 8 8 8 9 10 10 10 10 10 10 9 9 10 10 10 10 10 10 10 10 10 10 9 9 9 10 10 9 9 9 10 10 10 10 11 11 11 11 10 10 10 10 10 10 10 11 11 12 13 15 17 18 20 21 22 24 25 26 27 28 28 29 28 28 27 27 26 26 26 26 25 25 24 24 24 24 23 23 22
8 8 8 8 8 8 8 8 9 9 10 10 9 9 9 9 9 9 9 9 10 10 10 10 10 10 10 10 10 10 10 10 10 9 9 10 10 10 10 11 11 11 11 11 11 11 11 11 11 11 11 11 12 12 13 13 15 16 18 20 21 22 23 25 26 27 28 29 29 29 28 28 28 28 27 27 27 26 26 26 26 25 25 24 24
7 7 7 7 7 7 8 8 9 9 9 9 9 9 9 9 9 9 9 9 9 9 9 9 10 10 10 10 10 10 10 10 10 10 9 10 10 10 10 11 11 11 12 12 12 12 11 12 12 12 12 12 12 13 13 14 14 16 17 18 20 21 22 23 24 26 27 28 29 29 29 29 29 29 29 29 28 28 28 27 27 27 27 26 26
7 7 7 7 7 8 9 9 9 9 9 9 9 9 9 9 9 9 9 9 9 9 9 9 10 10 11 11 11 10 10 11 10 10 10 10 10 10 10 11 11 11 12 12 12 12 12 12 12 12 13 13 13 13 14 14 15 15 16 18 19 20 21 22 23 24 25 27 28 28 29 30 31 30 30 30 30 29 29 29 28 28 28 28 28
7 7 7 7 8 8 9 9 9 9 9 9 9 9 9 9 9 9 9 9 9 9 9 9 10 10 11 11 11 11 11 11 11 11 11 10 11 11 11 11 12 12 12 12 12 12 13 13 13 13 13 13 14 14 14 14 15 15 16 17 19 20 21 22 22 23 24 26 27 28 29 30 31 31 31 31 31 31 30 30 30 29 29 29 29
8 8 7 8 8 9 9 9 9 9 9 9 9 9 9 9 9 9 9 9 9 9 10 10 10 10 10 10 10 11 11 11 11 11 11 11 11 11 12 12 12 12 13 13 13 13 13 14 14 14 14 14 14 14 14 14 15 15 16 17 18 20 21 22 23 23 24 25 26 27 28 29 30 31 32 32 32 32 32 31 31 31 30 30 30
8 8 8 8 8 8 9 9 9 9 9 9 9 9 9 9 9 10 10 10 10 10 10 10 10 10 10 10 10 10 10 11 11 12 12 12 12 12 13 13 13 13 14 14 14 14 14 14 15 15 15 15 15 15 15 15 15 15 16 17 18 19 20 22 23 24 25 26 26 27 27 28 30 31 31 32 33 33 33 33 32 32 31 31 31
8 8 8 8 8 8 9 9 9 9 9 9 9 9 9 9 10 10 10 10 10 10 10 10 10 10 10 10 10 10 10 11 11 12 13 13 13 14 15 15 14 14 15 15 16 15 15 15 15 15 16 16 16 16 16 16 16 16 17 18 18 19 20 21 22 24 25 26 27 28 28 29 29 30 31 32 33 33 33 33 33 33 33 32 32
8 8 8 8 8 8 9 9 9 9 9 9 9 9 9 9 10 10 10 10 10 10 10 10 10 10 10 10 10 10 11 11 12 12 13 13 14 15 15 16 16 16 16 16 17 16 17 17 17 17 17 17 17 17 18 18 18 18 18 19 19 19 20 21 22 23 24 26 27 28 29 30 31 31 32 32 33 33 34 34 34 34 34 34 33
9 9 9 9 9 9 9 9 9 9 9 9 9 9 9 9 9 10 10 10 10 10 10 10 10 10 10 10 10 11 11 12 13 13 13 14 14 15 16 16 17 17 17 18 18 17 17 18 18 18 19 19 19 19 19 20 20 20 20 21 21 21 21 21 22 22 24 25 26 28 29 30 32 33 33 33 33 34 34 34 35 35 35 35 34
9 9 9 9 9 9 9 9 9 10 10 10 10 9 9 10 10 10 10 10 10 10 10 11 11 10 10 11 11 11 12 13 13 14 14 14 15 15 16 17 18 18 18 19 19 18 18 18 18 19 19 20 20 20 21 21 21 22 22 22 22 22 22 22 22 23 24 24 25 27 28 30 31 33 34 34 35 35 35 35 35 35 35 35 35
10 10 10 9 10 10 9 10 10 10 11 10 10 10 10 10 10 10 11 11 11 11 11 11 11 11 11 11 11 12 13 13 14 14 14 15 16 16 17 17 18 19 19 19 19 20 20 19 19 20 20 20 20 21 21 22 22 23 23 23 23 23 23 24 24 24 24 25 25 26 28 29 30 32 34 35 36 36 36 36 36 37 37 36 36
11 11 11 10 11 10 10 10 10 11 11 11 11 11 11 11 11 11 11 12 12 12 12 12 12 12 12 12 12 13 13 14 14 15 15 16 17 17 17 18 19 20 20 20 20 21 21 21 21 21 21 21 21 22 22 23 23 24 24 25 24 24 24 24 25 25 25 25 26 27 27 28 30 31 33 35 36 37 37 38 38 38 38 38 38
12 12 12 12 12 12 11 11 11 11 12 12 12 12 12 12 12 12 13 13 13 13 14 13 13 14 14 14 14 14 14 15 15 15 16 17 17 18 18 19 20 20 20 21 21 22 22 22 22 22 22 22 22 23 24 25 25 25 25 25 25 25 25 25 25 26 26 27 27 28 28 29 30 31 32 34 35 37 38 39 39 40 40 40 39
14 13 13 13 13 13 13 13 12 12 13 13 13 13 13 13 13 14 14 14 14 14 14 14 14 15 15 15 15 15 15 16 16 16 17 17 18 19 19 20 21 21 22 22 22 23 23 24 24 24 24 24 24 25 26 27 27 27 27 27 27 27 27 27 27 27 27 28 28 29 30 30 31 32 32 33 34 36 38 39 40 41 41 41 41
15 15 15 15 15 15 14 14 14 14 14 14 15 14 14 14 14 15 15 15 15 15 15 15 15 16 16 16 16 16 17 17 17 17 18 18 19 20 20 21 22 22 23 23 23 23 24 25 25 25 25 26 27 27 28 28 29 29 29 29 29 29 29 29 29 29 29 29 29 30 31 31 32 33 34 34 35 36 37 39 40 42 42 43 43
16 16 16 16 16 16 16 16 15 15 16 16 16 15 15 15 15 15 15 15 16 16 17 17 16 16 16 16 17 17 17 18 18 19 19 19 20 21 21 22 23 23 24 24 24 24 25 25 26 26 26 27 28 29 29 30 30 30 30 31 31 31 31 32 31 31 31 30 30 31 31 32 32 33 34 35 36 37 37 38 40 41 43 44 44
18 17 18 18 18 18 17 17 17 17 17 17 17 16 16 16 16 16 16 16 16 17 17 17 17 17 17 17 17 18 18 19 19 19 20 20 21 22 22 23 23 24 24 25 25 24 25 26 26 27 28 28 29 30 30 31 31 31 32 32 32 32 32 33 33 33 32 32 32 31 32 32 33 34 35 36 37 38 39 39 40 41 42 44 45
20 19 19 19 19 19 19 19 19 19 19 18 18 18 17 17 16 17 17 17 17 17 17 17 17 17 17 17 18 18 19 19 19 20 20 21 22 22 23 24 24 25 25 26 26 26 26 27 27 28 28 29 29 30 31 31 31 32 32 33 33 33 33 33 33 33 33 33 33 32 32 33 34 34 35 36 37 38 40 41 41 42 43 44 45
21 21 21 21 21 20 20 20 20 20 19 19 19 18 18 17 17 17 17 17 17 17 17 17 17 17 17 18 19 19 19 19 20 20 21 22 22 23 24 25 26 26 26 27 27 28 27 27 28 28 29 29 30 30 31 31 31 32 32 33 33 33 33 33 33 34 34 34 34 34 34 34 35 35 36 37 37 38 40 41 42 43 43 44 45
23 23 23 22 22 21 21 21 21 21 20 20 19 19 18 17 17 17 17 17 17 17 17 18 18 17 18 19 19 19 19 20 20 21 22 23 23 24 25 26 26 27 27 28 28 29 29 28 28 29 29 29 30 31 31 31 32 32 33 33 33 34 34 34 34 35 35 35 36 36 36 36 36 36 37 37 38 39 40 42 43 44 44 45 46
24 25 25 24 23 22 22 22 21 21 21 20 20 19 18 17 17 18 17 17 17 17 18 19 19 18 18 19 19 19 20 21 22 22 23 23 24 25 26 26 27 28 28 28 29 30 30 29 29 30 30 30 31 32 32 33 33 33 33 33 34 34 34 34 34 35 36 36 36 37 37 37 37 37 37 38 39 39 40 42 43 44 45 46 47
25 26 26 25 24 23 23 23 22 22 21 21 20 20 19 18 18 18 18 17 17 18 19 19 19 18 19 20 20 21 21 22 23 23 24 25 25 26 27 27 28 28 28 29 29 30 31 30 30 31 31 32 32 32 33 33 33 33 33 34 34 33 33 34 34 35 35 36 37 38 38 38 38 38 38 39 39 40 41 42 44 45 46 47 47
26 27 28 27 26 24 23 23 23 23 23 21 21 20 20 19 19 18 18 18 18 18 18 19 18 19 20 20 21 22 22 23 24 24 25 26 27 27 28 28 29 29 29 29 30 30 31 31 31 32 33 33 33 32 33 33 33 34 34 34 33 33 33 34 34 35 35 36 37 38 38 38 39 39 40 40 40 41 42 43 44 46 47 48 48
27 28 28 29 28 26 25 24 24 24 24 23 22 21 20 20 19 19 19 19 18 18 19 19 19 20 20 21 22 23 23 24 25 25 26 27 28 28 29 29 30 30 30 30 30 30 31 32 32 33 33 33 33 32 32 32 33 34 34 34 33 32 33 33 33 34 35 35 36 37 38 38 39 40 41 42 42 42 43 43 45 46 47 48 49
29 29 29 30 30 28 26 26 26 25 25 24 23 22 21 20 20 19 19 19 19 19 19 20 21 21 21 22 23 23 24 25 26 26 27 28 29 29 30 30 31 31 31 31 31 31 32 32 33 33 34 34 33 33 33 33 34 34 34 33 32 32 31 32 32 33 33 34 36 37 38 39 40 41 42 43 44 44 44 44 45 46 47 48 49
31 30 30 30 31 30 28 27 27 26 25 25 24 23 22 21 20 20 20 20 20 20 20 21 21 21 22 23 24 24 25 26 27 27 28 29 30 30 31 31 31 31 31 31 31 31 32 32 33 34 34 34 34 34 34 33 33 33 32 32 32 32 32 31 31 32 33 34 35 36 37 38 40 41 42 43 44 45 45 45 46 47 47 48 49
32 32 31 31 31 32 31 29 28 27 26 25 25 24 23 22 21 21 21 21 21 21 22 22 22 22 23 24 25 25 26 26 27 28 30 30 31 31 31 32 32 31 31 31 31 32 32 33 33 34 34 34 34 34 33 32 32 32 32 32 32 32 32 32 32 32 33 34 34 35 36 37 39 40 41 42 43 45 45 45 45 46 46 47 49
33 33 33 32 32 32 32 31 30 29 27 26 25 24 23 22 22 22 22 22 22 22 22 22 22 23 25 25 25 26 27 27 28 30 31 31 32 32 32 32 32 31 31 31 31 32 33 33 34 34 34 34 34 33 32 31 31 31 31 31 32 32 32 32 32 31 32 33 35 36 37 39 40 41 42 43 44 45 45 45 45 45 46 46 47
33 32 32 32 32 33 33 32 31 30 29 27 26 24 24 23 23 23 23 23 23 23 23 23 24 25 25 25 26 27 28 29 30 31 32 32 32 33 33 33 32 32 32 32 32 33 33 34 34 34 34 34 33 32 31 30 30 30 30 30 31 31 31 31 31 31 31 33 35 38 40 40 41 42 43 44 44 44 45 46 46 46 47 47 48
33 32 32 31 32 32 33 32 31 30 29 28 26 25 24 24 24 24 24 24 24 24 25 25 25 26 27 27 27 28 29 30 32 32 32 33 33 33 33 33 32 32 32 33 33 33 34 34 34 34 34 34 32 31 30 30 30 31 31 30 30 31 31 32 32 32 33 35 37 39 41 41 41 42 43 43 43 44 45 46 46 46 47 47 48
32 33 32 32 31 31 32 32 31 30 28 26 26 26 25 24 24 25 25 25 25 25 26 26 26 27 28 28 29 29 30 31 32 33 33 33 33 33 33 33 32 32 32 33 33 34 34 34 34 33 33 32 31 30 30 31 31 30 30 30 31 31 32 32 33 34 35 36 38 40 42 41 41 42 42 42 43 43 44 45 46 46 47 47 48
31 31 32 33 32 31 30 29 29 28 26 26 27 26 25 24 25 25 26 26 26 26 26 27 27 28 29 29 29 30 31 31 32 32 33 33 33 33 33 33 32 32 32 32 32 33 33 32 32 32 32 31 31 31 30 30 30 30 30 31 31 31 32 33 34 35 36 36 37 40 41 41 41 43 43 43 42 42 43 44 45 46 46 46 47
30 30 30 31 31 30 28 27 27 27 26 27 27 27 26 25 25 25 26 26 26 26 27 27 28 29 29 29 29 30 31 31 31 32 33 33 33 33 33 33 32 32 32 32 31 31 31 30 31 31 31 30 30 30 30 30 30 30 30 30 30 31 32 33 34 34 35 35 36 39 41 41 41 43 43 41 40 40 41 43 44 45 46 46 46
29 28 28 27 27 26 26 26 27 27 26 27 27 27 26 26 25 25 26 26 26 26 27 28 28 29 29 29 29 30 31 31 31 32 32 33 33 33 32 32 32 31 31 31 30 30 30 30 30 31 31 30 30 30 30 29 29 29 29 29 30 30 31 32 33 34 34 34 36 38 40 40 41 42 41 40 39 39 40 41 42 44 44 45 45
25 25 25 24 23 23 24 24 25 25 26 26 27 26 26 26 25 25 26 25 26 26 27 28 28 29 29 29 29 30 30 31 31 31 32 33 33 32 31 32 32 31 30 29 28 28 29 29 30 30 30 30 30 29 29 28 28 28 28 29 30 30 31 32 33 34 35 35 36 38 39 39 39 39 39 38 37 37 38 38 39 40 41 43 44
22 22 23 22 21 22 23 23 24 25 25 25 25 25 25 25 25 26 26 25 26 27 28 28 28 29 29 29 30 30 31 31 31 32 32 33 32 31 31 32 31 30 29 28 27 27 28 29 30 30 29 28 28 28 27 27 27 27 28 29 30 30 31 32 33 34 35 35 36 36 36 37 37 35 35 34 33 33 34 34 35 36 38 40 42
21 21 21 20 20 21 22 23 23 24 23 23 24 24 24 25 25 26 26 26 27 28 29 29 29 29 29 30 30 31 31 32 32 32 32 32 31 31 31 31 30 29 28 27 27 28 29 29 29 28 27 27 27 27 26 26 27 27 28 29 29 30 32 33 33 34 33 33 34 34 35 36 34 31 30 29 29 29 29 31 33 34 36 38 39
Wind_Direction
311 318 322 325 332 337 342 346 348 350 351 352 351 350 351 352 352 351 348 346 344 341 337 334 332 330 327 325 322 320 317 314 311 307 304 300 295 289 283 279 275 271 266 261 260 258 254 248 242 237 234 234 234 232 232 232 231 231 232 232 231 230 228 228 228 228 228 228 228 228 227 225 224 223 224 224 225 225 225 225 225 225 222 220 218
293 300 305 310 317 322 327 334 338 342 345 346 347 347 349 351 350 349 348 345 343 341 340 339 338 336 333 331 328 324 320 316 313 310 308 304 299 293 288 283 278 275 271 264 261 260 258 252 246 241 236 235 235 233 232 234 233 232 233 234 235 234 232 231 231 231 231 231 231 232 232 230 228 226 226 226 227 228 228 227 227 227 225 222 221
281 289 296 303 307 310 318 326 332 336 338 340 340 342 344 346 347 346 344 342 342 342 343 344 345 344 342 341 338 334 329 324 318 313 309 306 303 298 292 287 282 278 276 271 266 262 258 254 248 243 240 237 236 235 233 234 234 234 234 235 236 236 235 234 233 233 233 233 233 233 234 234 232 230 229 228 228 229 229 229 229 229 228 225 223
272 280 288 295 298 303 313 321 328 331 332 332 333 335 338 341 341 340 339 339 340 341 344 345 345 345 343 342 341 339 336 333 328 320 313 308 304 301 296 292 287 282 279 276 272 265 259 255 250 246 243 241 239 237 236 236 236 236 236 236 237 238 237 236 235 235 235 235 235 235 235 236 235 233 233 232 230 230 230 231 231 231 230 227 225
268 274 282 289 294 301 311 317 323 325 325 325 326 329 332 336 337 336 336 336 336 338 340 341 341 341 341 340 339 338 337 336 334 329 322 314 308 304 300 297 293 287 282 278 275 271 263 256 253 248 245 244 243 240 238 238 238 238 237 237 238 240 240 239 238 237 237 237 236 236 236 236 236 235 234 234 233 232 232 232 232 232 232 230 227
274 277 279 286 292 298 305 311 315 317 318 319 322 324 327 332 334 334 333 333 334 334 335 335 336 337 338 338 338 338 337 335 334 332 327 322 314 308 304 300 297 293 288 282 278 274 268 260 255 252 249 247 246 243 240 240 239 239 239 240 240 241 242 241 240 239 239 239 238 238 237 237 237 237 235 235 235 235 234 233 233 232 232 231 230
277 278 277 280 285 292 298 302 307 309 312 314 317 320 323 328 330 330 330 332 333 333 333 332 332 333 335 335 337 338 337 336 335 333 330 327 322 315 310 305 301 297 292 287 282 277 271 265 259 256 253 251 248 245 242 241 240 240 241 242 242 242 242 243 242 241 241 240 240 239 239 238 238 238 237 235 235 236 236 235 234 233 232 232 232
274 275 275 277 281 288 292 295 300 304 307 310 313 315 319 323 324 325 327 330 332 332 332 331 329 331 333 334 335 336 335 335 334 333 333 331 328 324 320 316 310 305 298 291 286 280 275 269 263 258 255 254 251 248 245 243 243 243 244 244 244 244 243 243 243 242 242 242 242 241 240 240 239 239 238 237 235 235 236 236 236 234 233 233 233
273 274 275 277 281 286 288 292 296 300 304 308 310 313 316 318 319 320 323 327 328 328 329 329 328 329 331 332 333 333 332 332 332 332 333 333 332 330 328 325 321 317 309 299 291 285 280 273 266 261 258 256 253 251 249 247 247 246 246 246 245 245 244 244 244 243 242 242 243 243 242 241 241 240 239 239 237 236 236 236 237 236 235 234 234
276 276 276 278 282 286 289 292 294 297 302 306 309 312 314 314 314 317 321 324 326 326 327 327 326 327 329 330 331 330 330 330 330 330 332 332 332 332 331 329 327 325 322 313 303 293 287 280 272 265 261 258 255 254 253 251 250 249 248 247 246 246 246 246 246 245 244 243 243 243 243 242 242 241 241 240 239 237 236 236 237 237 237 236 236
277 278 280 282 284 286 289 292 293 296 301 305 308 310 311 310 310 313 317 320 322 324 325 324 324 324 326 328 328 328 328 330 329 329 330 330 330 331 331 332 330 329 328 323 315 306 297 290 282 274 267 262 259 257 255 255 253 251 250 249 248 248 248 248 247 246 246 245 243 243 243 243 243 243 242 241 240 239 238 237 237 237 237 237 237
277 279 282 284 285 284 287 290 293 297 302 305 307 308 307 306 306 309 313 316 318 321 322 321 321 321 323 325 325 324 325 327 327 327 327 328 328 329 330 331 331 329 327 325 320 314 307 300 293 285 277 270 265 261 259 258 257 255 253 251 250 250 249 249 248 247 247 246 245 243 243 243 243 243 243 242 241 240 239 238 238 238 238 238 238
278 279 280 282 282 284 287 290 293 298 303 306 307 305 303 303 305 308 311 314 316 319 320 319 319 320 322 325 325 323 323 324 323 323 323 324 325 326 327 328 328 327 325 322 319 315 311 306 300 294 287 280 273 268 264 261 259 258 256 254 252 251 251 251 250 248 247 246 246 245 244 243 243 243 243 243 242 241 240 239 239 239 239 239 239
279 280 280 280 281 284 286 288 293 299 304 306 306 304 302 303 306 309 311 313 316 319 320 319 319 321 323 325 325 322 320 322 322 320 320 321 322 323 323 324 325 324 322 320 317 314 310 307 303 298 293 288 282 276 271 266 263 261 259 256 254 253 252 252 251 250 248 247 246 245 245 244 244 244 244 243 243 243 242 241 240 240 240 239 239
280 281 280 279 279 280 280 284 293 299 303 306 306 305 305 305 307 309 312 314 317 320 320 319 319 320 320 321 322 318 316 319 321 319 318 319 320 321 322 323 323 322 321 318 316 313 310 307 304 300 297 292 286 282 277 273 269 266 263 260 258 256 255 253 252 250 249 248 246 246 245 245 245 244 244 244 244 244 243 243 241 241 240 240 240
280 281 280 278 276 276 279 286 294 298 303 305 305 306 307 307 307 310 312 315 318 320 321 320 318 317 317 317 318 315 314 318 320 318 317 318 319 321 322 322 323 322 320 317 314 312 309 307 305 303 300 297 292 286 282 279 275 272 267 264 262 260 258 256 254 251 250 249 248 247 246 245 245 245 245 245 244 244 244 244 243 242 241 241 240
281 281 280 279 277 279 284 290 295 300 304 306 306 307 307 307 308 310 311 313 317 319 320 320 319 317 315 315 315 313 314 317 317 315 314 314 316 318 318 319 321 321 319 317 314 311 308 306 304 304 302 300 297 293 288 284 281 277 272 268 266 263 261 259 257 254 252 250 249 248 247 246 245 245 245 245 245 245 245 244 243 243 242 241 241
283 282 282 282 283 285 289 293 297 301 304 305 305 305 306 306 307 308 309 310 314 316 318 319 320 318 315 314 313 311 312 313 313 314 313 312 313 314 314 316 318 320 319 317 314 310 307 305 303 302 301 300 298 295 293 289 285 281 277 273 270 267 264 262 260 257 254 252 250 249 248 246 246 245 245 245 245 245 245 244 244 243 242 242 242
283 283 283 284 287 290 292 295 298 299 301 301 300 301 303 304 304 305 307 308 311 313 315 317 318 319 317 314 313 311 310 310 311 313 313 313 313 313 314 315 315 317 318 317 314 311 308 305 303 302 301 299 297 294 293 291 288 284 281 279 275 271 268 265 262 259 257 254 251 250 249 247 246 246 246 245 245 245 245 245 244 244 243 242 242
280 282 281 282 287 291 293 296 299 298 298 298 298 299 300 301 301 303 305 306 309 312 314 315 317 318 318 316 314 311 310 310 311 312 314 314 314 313 315 315 314 315 317 317 314 311 308 306 303 302 300 299 297 294 292 290 288 285 283 282 279 276 272 268 265 262 259 257 254 252 250 249 247 247 247 246 246 246 245 245 244 244 243 243 242
277 279 279 281 285 290 293 296 299 299 299 298 299 299 299 299 299 301 303 305 308 311 312 313 315 316 317 316 314 312 310 311 311 312 314 314 314 315 315 315 314 314 315 316 314 311 308 306 303 300 298 297 296 294 292 290 289 287 285 284 281 279 276 271 268 265 262 259 256 254 252 250 249 248 247 247 246 246 246 246 245 245 244 243 243
277 277 277 278 283 288 293 296 298 299 299 298 298 298 298 299 299 300 302 304 307 309 310 311 312 312 313 313 312 312 311 311 311 311 312 312 312 313 314 313 313 313 313 313 312 309 307 304 302 299 296 295 294 292 291 289 288 287 287 285 283 281 279 275 271 267 264 261 259 257 254 252 251 250 249 248 247 246 246 246 246 245 244 243 243
278 277 276 275 280 287 291 293 295 298 297 296 296 296 297 297 298 299 301 303 304 305 307 307 306 307 307 308 308 309 310 311 311 310 309 309 310 311 311 311 311 310 310 311 310 308 306 304 301 298 295 293 292 291 289 288 286 286 286 285 283 280 279 277 274 271 267 264 261 259 257 255 253 251 250 250 249 248 246 245 245 245 245 244 243
276 276 276 275 279 285 288 290 293 296 295 294 293 293 295 296 296 297 298 301 301 302 303 303 302 303 303 303 304 306 308 310 309 308 307 307 308 309 310 311 310 309 309 310 309 308 307 305 302 300 296 293 291 290 289 288 285 284 284 284 282 280 278 277 275 273 270 267 264 261 259 258 255 253 252 251 250 248 247 246 245 245 244 244 243
272 274 275 276 280 284 287 289 292 294 293 292 291 290 292 293 293 294 295 297 298 298 299 300 299 300 300 299 300 303 306 307 307 305 304 304 306 307 308 309 308 308 308 308 308 307 306 305 304 301 298 294 293 291 290 289 287 285 284 283 281 279 277 276 275 273 272 270 267 264 262 260 258 255 253 251 250 249 248 247 246 245 244 244 243
270 273 276 277 281 283 284 287 290 293 292 290 289 289 290 291 291 292 292 293 294 294 295 296 296 297 297 297 297 300 303 304 304 302 301 301 302 304 305 306 306 306 305 305 304 304 303 303 303 302 298 295 293 293 291 290 289 286 285 282 280 278 277 276 275 273 272 271 270 267 265 263 260 258 256 253 251 250 249 247 246 246 245 244 243
270 273 276 276 278 280 281 283 286 290 291 290 290 289 288 289 290 290 290 291 291 292 292 293 293 294 295 296 295 297 300 301 301 300 299 299 300 301 303 305 305 304 303 302 301 301 300 300 301 301 299 295 294 293 292 291 289 287 285 283 280 278 278 277 276 274 273 272 271 270 268 265 263 261 258 256 253 251 250 249 247 246 245 244 243
272 274 276 276 276 277 279 281 284 288 291 291 290 289 288 287 287 289 289 289 290 290 291 291 291 293 294 295 294 296 298 299 300 300 298 297 298 298 300 302 304 304 302 301 300 300 299 299 299 298 298 296 294 293 293 291 289 287 284 282 279 278 277 277 277 276 275 273 272 271 270 268 265 262 260 258 256 253 251 249 248 247 245 244 243
274 275 277 276 276 276 278 281 283 286 290 291 290 289 288 287 286 287 288 289 289 289 290 290 291 293 295 295 294 295 297 298 299 299 298 298 297 297 298 300 302 303 303 301 300 299 299 298 298 296 296 296 295 294 292 291 289 286 284 281 279 277 276 276 277 277 276 275 274 272 271 269 267 264 261 259 258 256 253 251 249 248 246 245 243
274 275 276 276 276 277 278 280 282 286 289 290 289 289 288 288 287 287 287 288 288 289 289 290 291 293 294 295 295 296 296 297 299 299 299 299 298 298 298 300 301 302 302 301 299 298 298 298 298 297 296 296 295 294 292 291 288 286 284 282 279 277 275 275 275 276 276 276 275 273 271 270 268 266 263 261 258 257 255 253 251 249 247 245 244
272 274 274 275 276 277 277 278 280 284 287 288 288 287 288 289 288 287 287 287 287 288 289 290 291 292 293 294 296 296 295 296 299 300 299 299 299 299 300 300 301 301 301 301 299 298 297 297 297 297 297 296 295 294 292 291 288 285 283 282 280 279 277 275 275 275 275 275 275 274 272 270 269 268 265 262 260 257 255 253 252 250 248 246 244
271 272 272 273 274 276 276 276 278 281 283 285 286 286 287 288 287 286 286 287 287 288 288 289 291 292 293 295 296 296 295 295 298 300 301 301 301 300 301 302 301 301 301 300 299 297 297 296 296 296 297 297 296 294 292 291 289 286 284 282 281 280 278 276 275 275 274 274 274 274 273 271 270 269 267 264 261 259 256 254 252 251 249 247 245
270 270 271 273 275 276 276 276 277 278 280 281 283 285 285 285 285 285 286 286 286 287 288 289 290 292 293 295 295 295 295 295 298 300 301 302 302 302 302 302 302 301 301 300 299 298 297 297 296 296 296 297 296 295 293 291 289 287 285 283 282 280 278 277 276 275 274 274 273 273 273 272 271 270 269 267 264 260 258 255 253 251 249 247 245
268 268 270 273 275 276 275 275 276 276 277 278 280 282 282 282 282 284 285 284 285 286 287 288 290 291 293 295 295 295 296 297 299 301 302 303 303 302 302 302 302 301 301 300 299 299 298 297 297 297 297 297 296 296 294 291 289 288 286 284 283 280 279 277 276 275 274 273 273 273 272 272 271 270 269 268 265 262 259 256 254 251 249 247 245
269 268 269 272 274 274 274 274 274 273 275 277 278 279 279 279 281 282 282 282 283 285 286 287 288 289 293 295 295 295 296 298 301 302 302 303 303 303 303 303 302 301 300 299 299 299 299 298 298 298 298 297 295 295 293 291 289 288 287 285 284 282 280 278 276 275 274 273 273 272 272 271 271 270 269 268 267 264 261 258 255 252 250 247 245
271 269 268 270 273 274 272 271 271 270 272 276 277 277 276 277 279 279 279 280 283 286 287 287 286 287 291 294 294 295 296 299 302 303 303 303 304 304 304 303 302 301 301 300 298 298 298 298 298 298 298 297 295 294 293 291 289 288 287 286 285 283 281 279 277 276 275 274 273 272 271 271 271 270 269 268 267 266 263 260 257 253 250 248 246
273 271 268 268 271 272 271 270 269 268 270 273 275 274 274 276 278 277 276 277 281 286 288 287 285 286 290 293 295 295 296 299 302 304 304 304 304 304 304 304 303 302 301 299 298 298 298 298 299 299 298 297 295 293 292 290 289 289 289 288 286 284 282 280 278 277 276 275 273 272 271 271 271 271 270 269 268 266 265 262 258 255 251 248 246
273 273 269 266 267 269 269 269 269 268 269 271 272 272 273 274 276 275 275 276 281 285 288 288 286 286 289 292 295 296 296 299 302 304 304 305 305 305 304 304 304 303 301 299 298 298 298 298 299 299 299 297 295 293 291 290 289 290 290 289 287 286 283 281 279 278 277 276 275 273 272 272 272 272 271 270 268 267 265 264 260 255 252 249 246
270 272 271 267 265 266 267 268 268 268 269 269 270 271 272 273 274 273 274 277 280 285 288 289 287 286 288 292 295 296 297 300 302 304 305 306 306 306 306 305 305 303 301 299 298 298 299 299 300 300 299 297 295 293 292 291 290 290 290 289 287 286 284 282 281 280 279 278 277 276 275 274 274 274 273 271 269 267 266 265 261 256 252 249 246
268 270 272 269 265 264 265 267 266 266 267 268 268 269 271 272 271 272 274 277 281 285 289 289 288 287 289 292 294 296 297 300 302 304 306 307 307 307 307 306 305 303 301 299 298 299 299 300 300 300 299 298 296 294 293 292 291 290 290 289 288 287 285 283 282 282 281 279 278 277 277 276 274 274 273 271 268 267 266 264 261 257 253 249 245
269 270 272 271 266 263 263 264 263 263 265 266 266 267 269 269 270 272 275 278 281 286 289 289 288 289 291 293 295 296 298 300 302 304 306 307 308 307 307 306 305 303 301 300 299 299 300 300 301 301 299 297 296 295 294 292 292 292 291 291 289 288 286 284 283 283 283 282 280 278 278 278 276 274 273 271 269 267 265 263 260 256 252 248 245
270 270 271 270 267 264 262 262 262 262 263 265 264 265 267 269 272 274 276 278 281 286 289 289 288 289 292 294 295 297 299 300 302 304 306 307 307 307 306 306 304 303 301 300 299 299 300 301 301 300 299 297 296 295 294 293 293 293 292 291 291 290 289 287 285 285 285 284 282 281 281 281 279 276 274 272 270 267 264 261 258 255 252 248 245
269 271 272 270 268 264 261 260 261 262 263 263 263 265 268 271 273 274 275 277 281 286 289 288 287 290 292 294 295 297 298 300 302 304 305 306 306 306 305 305 303 302 301 300 300 300 300 301 301 300 299 297 296 295 294 294 294 294 293 292 292 291 291 289 288 288 288 287 285 284 285 285 283 279 275 273 271 268 264 260 257 254 252 249 245
267 269 271 270 268 264 260 259 260 261 263 262 262 266 270 271 272 273 274 278 282 286 289 287 287 291 293 293 295 296 297 299 302 304 305 306 306 305 305 304 303 301 300 300 299 299 300 300 300 299 298 297 296 295 294 295 295 294 294 293 292 292 291 291 290 289 291 291 288 286 287 287 285 280 276 274 272 268 263 259 255 253 252 249 246
267 267 269 269 268 264 261 261 260 260 261 262 263 266 269 269 269 270 273 278 282 286 288 287 287 291 293 293 293 293 295 298 301 304 305 306 305 305 304 304 303 302 301 300 299 299 299 300 299 298 298 297 296 295 295 296 295 295 294 293 293 292 292 291 291 292 293 293 291 288 288 288 287 282 278 276 273 268 262 258 254 252 251 249 246
268 269 270 268 266 265 264 262 261 259 260 263 266 267 268 268 268 270 274 279 282 285 287 286 287 291 292 292 292 293 295 298 302 304 305 305 305 305 305 304 303 303 302 301 301 300 300 300 299 299 298 297 296 296 296 296 295 295 295 294 294 293 292 293 294 295 296 295 293 290 289 289 288 285 281 278 274 267 261 257 253 251 250 248 245
271 272 273 270 266 265 266 265 263 261 262 265 267 267 267 268 268 271 275 279 283 285 286 286 288 290 291 292 294 295 297 300 303 304 304 304 305 305 305 304 303 303 303 303 302 301 301 301 300 300 298 297 296 296 297 297 296 295 295 295 295 294 294 296 297 298 298 298 296 293 290 290 291 288 284 279 273 267 261 257 253 250 248 247 244
273 273 274 272 267 265 266 266 263 261 262 265 265 265 267 268 268 271 276 280 283 286 287 288 290 291 293 294 296 297 299 301 303 304 304 304 304 305 304 303 303 304 304 303 301 300 301 301 301 300 298 297 297 297 297 297 296 296 296 296 297 297 298 299 300 300 301 300 298 296 293 293 293 290 284 279 273 266 262 258 253 249 248 246 242
271 271 273 272 267 266 266 264 261 261 263 264 264 265 266 266 267 272 277 280 284 286 288 290 292 293 295 296 297 298 300 302 303 303 303 303 304 304 304 304 304 304 304 303 301 300 301 301 300 299 298 297 297 297 297 297 296 297 298 298 299 300 300 302 302 302 303 302 302 300 296 296 296 292 285 280 274 267 263 259 254 249 247 244 241
270 272 272 268 264 265 265 264 263 264 264 262 261 264 265 266 268 273 276 281 285 287 290 293 293 294 296 296 298 299 301 302 303 303 302 303 304 304 304 304 304 303 303 303 302 302 303 302 301 299 298 297 297 297 298 297 298 299 299 299 300 301 302 303 304 304 304 305 305 304 300 300 299 293 286 282 276 269 264 260 254 249 245 243 239
273 272 269 265 263 265 267 267 267 266 263 260 261 264 266 268 271 273 276 280 285 289 292 294 294 295 297 298 299 300 301 302 302 302 302 302 303 303 303 303 303 302 302 302 302 303 304 304 302 301 299 299 299 299 300 300 300 300 299 300 301 302 304 305 306 306 306 307 309 307 304 304 302 293 287 284 277 271 265 259 252 248 244 241 238